Regional Weather Roundup
Issued by NWS

Home | Current Version | Previous Version | Text Only | Print | Product List | Glossary Off
Versions: 1 2 3 4 5 6 7 8 9 10 11 12 13 14 15 16 17 18 19 20 21 22 23 24 25 26 27 28 29 30 31 32 33 34 35 36 37 38 39 40 41 42 43 44 45 46 47 48 49 50

000
ASUS43 KMPX 220001
RWRMN
WEATHER ROUNDUP FOR MINNESOTA
NATIONAL WEATHER SERVICE TWIN CITIES/CHANHASSEN MN
700 PM CDT FRI JUL 21 2017


NOTE: "FAIR" INDICATES FEW OR NO CLOUDS BELOW 12,000 FEET WITH NO
SIGNIFICANT WEATHER AND/OR OBSTRUCTIONS TO VISIBILITY. N/A MEANS
CURRENT SKY AND/OR WEATHER CONDITIONS ARE NOT AVAILABLE.

MNZ060>063-068>070-220100-
   Twin Cities Metro

CITY           SKY/WX    TMP DP  RH WIND       PRES   REMARKS
TWIN CITIES    PTSUNNY   81  68  64 SE10      29.80F
6HR MIN TEMP:  75; 6HR MAX TEMP:  83;

ST PAUL        SUNNY     81  69  67 SE9       29.81F
CRYSTAL        PTSUNNY   81  66  60 S7        29.78F
BLAINE         PTSUNNY   84  70  61 S6        29.81F
LAKEVILLE      MOSUNNY   79  68  69 S3        29.81F
EDEN PRAIRIE   MOSUNNY   82  69  64 S9        29.80F
6HR MIN TEMP:  77; 6HR MAX TEMP:  84;

SOUTH ST PAUL  SUNNY     80  67  64 SE3       29.81F
LAKE ELMO      FAIR      79  70  73 SE5       29.83F
$$
MNZ001>005-007-008-013>017-022>024-027-028-220100-
   Northwest Minnesota

CITY           SKY/WX    TMP DP  RH WIND       PRES   REMARKS
BEMIDJI        CLOUDY    68  63  84 CALM      29.81R
HALLOCK        MOSUNNY   77  66  69 E16G24    29.76S
ROSEAU         CLOUDY    72  64  78 E13       29.80F
WARROAD        CLOUDY    72  66  83 NE10      29.82F
CROOKSTON      CLOUDY    77  72  83 CALM      29.76R
FOSSTON        CLOUDY    70  68  94 E3        29.79R
DETROIT LAKES  MOSUNNY   72  66  83 SE5       29.80F
MOORHEAD       CLOUDY    81  61  50 N10G16    29.75F
PARK RAPIDS    TSTM      67  65  93 VRB5      29.82F VSB 3/4
MAHNOMEN       FAIR      74  65  74 S5        29.74F
$$
MNZ006-009>011-018-025>026-220100-
   North Central Minnesota

CITY           SKY/WX    TMP DP  RH WIND       PRES   REMARKS
BAUDETTE       CLOUDY    72  63  73 E8        29.82F
FLAG ISLAND    CLOUDY    70  61  73 NE8       29.82F
INTL FALLS     CLOUDY    71  61  70 E5        29.83S
6HR MIN TEMP:  70; 6HR MAX TEMP:  79;

BIG FORK       TSTM      63  61  94 CALM      29.88R
LONGVILLE      TSTM      66  64  94 SW5       29.86R
GRAND RAPIDS   TSTM      65  63  93 NE8       29.87R FOG
CRANE LAKE     CLOUDY    66  64  94 CALM      29.87F
ORR            LGT RAIN  63  59  88 SE3       29.83R
COOK           CLOUDY    66  61  82 CALM      29.85R
WALKER         DRIZZLE   65  63  92 S6        29.83F
$$
MNZ012-019>021-037-220100-
   Northeast Minnesota

CITY           SKY/WX    TMP DP  RH WIND       PRES   REMARKS
DULUTH         PTSUNNY   70  60  70 E10       29.85F
6HR MIN TEMP:  70; 6HR MAX TEMP:  78;

ELY            RAIN      75  61  60 W7        29.91R
HIBBING        TSTM      64  63  96 SE8       29.85F
EVELETH        TSTM      65  56  71 NE8       29.88F
DULUTH HARBOR  MOSUNNY   64  59  82 NE13      29.85S
TWO HARBORS    MOSUNNY   72  57  60 NE8G16    29.85R
SILVER BAY     CLOUDY    68  54  60 NE6       29.86S
GRAND MARAIS     N/A     64  53  67 NE8       29.86F
G MARAIS ARPRT SUNNY     68  54  60 E3        29.92S
$$
MNZ029>031-032-039>041-046>048-054>057-064-220100-
   West Central Minnesota

CITY           SKY/WX    TMP DP  RH WIND       PRES   REMARKS
FERGUS FALLS   MOSUNNY   82  73  74 S6        29.74S
WHEATON        PTSUNNY   82  73  74 E3        29.77R THUNDER HAZE
MORRIS         SUNNY     88  72  58 S10       29.76S HX  94
ALEXANDRIA     MOSUNNY   81  71  71 S7        29.82R
ELBOW LAKE     FAIR      79  74  87 S7        29.78R
WADENA         PTSUNNY   81  70  69 SW5       29.82R
GLENWOOD       SUNNY     82  73  74 S9        29.81R
BENSON         SUNNY     84  72  65 SW10      29.79S
ORTONVILLE     SUNNY     86  73  66 SE12      29.75S HX  93
MADISON        SUNNY     88  73  62 S12       29.75F HX  96
WILLMAR        FAIR      82  73  74 S5        29.81S
$$
MNZ033>034-036-042>043-049>051-058-059-220100-
   Central Minnesota

CITY           SKY/WX    TMP DP  RH WIND       PRES   REMARKS
ST CLOUD       CLOUDY    80  72  76 S8        29.81S
6HR MIN TEMP:  79; 6HR MAX TEMP:  83;

SAUK CENTRE    FAIR      81  72  75 S9        29.82R
PAYNESVILLE    SUNNY     81  71  71 S10       29.82S
AITKIN         MOSUNNY   77  70  78 SE5       29.82R
PINE RIVER     CLOUDY    66  64  94 N15G28    29.90R
BRAINERD       MOSUNNY   79  70  74 S10       29.81R
STAPLES        CLOUDY    81  70  69 S6        29.82S
LONG PRAIRIE   FAIR      79  70  73 SE8       29.82R
LITTLE FALLS   PTSUNNY   81  68  65 S5        29.84R
LITCHFIELD     MOSUNNY   82  72  69 S5        29.80F
BUFFALO        PTSUNNY   80  68  67 S6        29.81F
MAPLE LAKE     CLOUDY    81  73  76 S3        29.82F
HUTCHINSON     MOSUNNY   80  73  78 S7        29.81F
$$
MNZ037-044-045-052-053-220100-
   East Central Minnesota

CITY           SKY/WX    TMP DP  RH WIND       PRES   REMARKS
PRINCETON      CLOUDY    81  72  74 S6        29.82S
MORA           PTSUNNY   77  68  73 S5        29.85R
CAMBRIDGE      MOSUNNY   81  68  65 S5        29.80F
RUSH CITY      MOSUNNY   78  70  77 SE5       29.83S
MOOSE LAKE     PTSUNNY   77  68  73 S5        29.82R
HINCKLEY       CLOUDY    79  72  78 SE6       29.84R
CLOQUET        MOSUNNY   68  55  64 E6        29.86R
MCGREGOR       PTSUNNY   79  68  69 S5        29.84R
$$
MNZ071>073-080-081-089-090-097-098-220100-
   Southwest Minnesota

CITY           SKY/WX    TMP DP  RH WIND       PRES   REMARKS
MONTEVIDEO     SUNNY     84  73  70 SW10      29.77F HX  91
GRANITE FALLS  MOSUNNY   83  74  73 SE9       29.79F HX  90
CANBY          SUNNY     87  70  57 CALM      29.77F HX  92
MARSHALL       MOSUNNY   83  73  72 S13       29.78F
REDWOOD FALLS  SUNNY     81  69  67 S10       29.79F
OLIVIA         SUNNY     79  70  73 S8        29.79F
PIPESTONE      MOSUNNY   82  73  74 S7        29.81F
WINDOM         SUNNY     79  70  73 SE7       29.81F
WORTHINGTON    SUNNY     79  72  79 SE8       29.81F
JACKSON        SUNNY     79  70  73 CALM      29.82F
SLAYTON        MOSUNNY   79  71  74 SE12      29.83F
$$
MNZ065>067-074>077-082>085-091>093-220100-
   South Central Minnesota

CITY           SKY/WX    TMP DP  RH WIND       PRES   REMARKS
MANKATO        SUNNY     79  69  71 SE7       29.80F
NEW ULM        SUNNY     79  68  69 SE6       29.80F
ST JAMES       SUNNY     79  70  73 SE6       29.81F
FAIRMONT       PTSUNNY   77  71  82 SE7       29.80F
GLENCOE        SUNNY     82  73  75 S7        29.80F
FARIBAULT      MOSUNNY   79  68  69 SE7       29.81F
OWATONNA       PTSUNNY   79  66  65 E5        29.81F
WASECA         MOSUNNY   77  66  69 SE6       29.82F
ALBERT LEA     CLOUDY    75  70  83 SE8       29.81F
$$
MNZ078>079-086>088-094>096-220100-
   Southeast Minnesota

CITY           SKY/WX    TMP DP  RH WIND       PRES   REMARKS
ROCHESTER      PTSUNNY   74  69  85 SE9       29.83F
6HR MIN TEMP:  69; 6HR MAX TEMP:  74; 6HR PCP:  0.07;

RED WING       MOSUNNY   79  64  61 SE6       29.81F
STANTON        CLOUDY    80  66  63 SE9       29.80F
DODGE CENTER   CLOUDY    75  66  73 SE8       29.82F
WINONA         CLOUDY    73  68  83 SE7       29.83F
AUSTIN         CLOUDY    75  68  78 SE8       29.81F
PRESTON        PTSUNNY   72  66  82 SE8       29.85F
$$
ABBREVIATIONS USED IN REMARKS
   TC - TEMPERATURES IN CELSIUS
  WCI - WIND CHILL INDEX
   HX - HEAT INDEX
  VSB - VISIBILITY
$$




USA.gov is the U.S. government's official web portal to all federal, state and local government web resources and services.